SCOUT X-1 DEB, 4026

Orbit data source: Space-Track

SCOUT X-1 DEB, 4026 is space debris in LEO originally from a launch on Thu, 16 Feb 1961 UTC launched from the Wallops Island (WLPIS). Debris objects in space refer to the collection of defunct objects orbiting the Earth. Examples of debris include non-operational satellites, rocket bodies, and fragments generated from explosions, collisions, or faulty payload assembly.

Loading next visibility...
Identifier
4026, 1961-004G
Orbit
LEO
Country
Flag of USUS
Related business
Manufacturer
Unknown
Mission
Spacecraft
Bus & Motor
Unknown
Mass
Unknown
Launch date (UTC)
1961-02-16 (65 years ago)
Launch vehicle
Unknown
Launch site
Wallops Island (WLPIS)
Object type
Payload
Rocket body
Debris
Shape & HBR
Unknown shape, 0.1 m
Radar Cross Section
Small (<0.1 m²)

Expand to show TLE details & history
Last TLE update: 5 hours ago

TLE from 5 hours ago
0 SCOUT X-1 DEB
1  4026U 61004G   25304.82306855  .00027009  00000-0  54245-2 0  9994
2  4026  38.8165 225.7506 0392513  63.5628 300.4841 14.22196291101183
Epoch: 2025-10-31T19:45Z
TLE epoch observation values (Epoch: 2025-10-31T19:45:13.122Z)
Latitude
-0.00007°
Longitude
-110.91613°
Altitude
682.488 km
Speed
7.587 km/s
True Right ascension
15h 03m 00s
True Declination
0° 00' 00"
Sunlit
Object was in daylight at epoch
Visualization orbit readout
Latitude
Unknown
Longitude
Unknown
Altitude
Unknown
Speed
Unknown
Apparent Right ascension
Unknown
Apparent Declination
Unknown
Sunlit
N/A
Visualization observer readout
Local Sidereal Time
20:23:23
Azimuth
Unknown
Elevation
Unknown
Doppler factor
Unknown
Orbital elements
Apogee altitude
1,103.013 km
Perigee altitude
537.904 km
Semi-major axis
7,198.596 km
Eccentricity
0.03925
Inclination
38.8165°
RAAN
225.7506°
Arg. of periapsis
63.5628°
True anomaly
296.51233°
Mean anomaly
300.4841°
Eccentric anomaly
298.50785°
Mean motion
3.55362 °/min
Orbital period
101.31 mins
BSTAR
0.0054245
Loading maneuver chart data...
Computing Atmospheric mass density...
Loading historical data...
Loading historical data...
Loading historical data...
Loading historical data...
Loading historical data...
Loading historical data...
Loading historical data...

Documentation

Showing up to 5 results
|